| time (UTC) | temp C | wind direction | speed KPH | gust KPH | rain 1hr cm | rain 24hr cm | rain mn cm | humidity % | barometer mb |
| 20260504195009 | 21 | 283 | 0.0 | 11.3 | 0.00 | 0.00 | 0.00 | 40 | 1011.7 |
| 20260504194511 | 21 | 274 | 1.6 | 11.3 | 0.00 | 0.00 | 0.00 | 39 | 1011.8 |
| 20260504194009 | 21 | 207 | 0.0 | 6.4 | 0.00 | 0.00 | 0.00 | 39 | 1011.9 |
| 20260504193514 | 21 | 201 | 0.0 | 11.3 | 0.00 | 0.00 | 0.00 | 40 | 1011.9 |
| 20260504193008 | 21 | 234 | 1.6 | 12.9 | 0.00 | 0.00 | 0.00 | 38 | 1011.9 |
| 20260504192509 | 21 | 144 | 1.6 | 11.3 | 0.00 | 0.00 | 0.00 | 39 | 1011.8 |
| 20260504192008 | 21 | 189 | 0.0 | 8.0 | 0.00 | 0.00 | 0.00 | 39 | 1012.1 |
| 20260504191506 | 21 | 199 | 1.6 | 8.0 | 0.00 | 0.00 | 0.00 | 39 | 1011.9 |
| 20260504191005 | 21 | 180 | 1.6 | 8.0 | 0.00 | 0.00 | 0.00 | 38 | 1012.2 |
| 20260504190506 | 21 | 181 | 0.0 | 4.8 | 0.00 | 0.00 | 0.00 | 38 | 1012.2 |
| 20260504190002 | 21 | 198 | 0.0 | 6.4 | 0.00 | 0.00 | 0.00 | 38 | 1012.3 |
| 20260504185502 | 21 | 193 | 0.0 | 6.4 | 0.00 | 0.00 | 0.00 | 38 | 1012.4 |
| 20260504185002 | 21 | 216 | 1.6 | 6.4 | 0.00 | 0.00 | 0.00 | 38 | 1012.3 |
| 20260504184502 | 21 | 170 | 0.0 | 8.0 | 0.00 | 0.00 | 0.00 | 39 | 1012.4 |
| 20260504184101 | 21 | 181 | 1.6 | 8.0 | 0.00 | 0.00 | 0.00 | 38 | 1012.4 |
| 20260504183601 | 21 | 193 | 0.0 | 6.4 | 0.00 | 0.00 | 0.00 | 40 | 1012.5 |
| 20260504183059 | 21 | 188 | 0.0 | 8.0 | 0.00 | 0.00 | 0.00 | 39 | 1012.5 |
| 20260504182601 | 21 | 191 | 0.0 | 6.4 | 0.00 | 0.00 | 0.00 | 39 | 1012.5 |
| 20260504182057 | 21 | 236 | 0.0 | 6.4 | 0.00 | 0.00 | 0.00 | 38 | 1012.6 |
| 20260504181602 | 21 | 205 | 0.0 | 6.4 | 0.00 | 0.00 | 0.00 | 38 | 1012.8 |
| 20260504181056 | 21 | 206 | 0.0 | 9.7 | 0.00 | 0.00 | 0.00 | 39 | 1012.7 |
| 20260504180553 | 21 | 113 | 1.6 | 9.7 | 0.00 | 0.00 | 0.00 | 38 | 1013.0 |
| 20260504180054 | 21 | 206 | 0.0 | 6.4 | 0.00 | 0.00 | 0.00 | 40 | 1013.0 |
| 20260504175553 | 21 | 131 | 0.0 | 6.4 | 0.00 | 0.00 | 0.00 | 41 | 1013.3 |
| 20260504175053 | 21 | 154 | 0.0 | 6.4 | 0.00 | 0.00 | 0.00 | 39 | 1013.2 |
| 20260504174556 | 21 | 204 | 0.0 | 9.7 | 0.00 | 0.00 | 0.00 | 39 | 1013.2 |
| 20260504174053 | 21 | 207 | 1.6 | 11.3 | 0.00 | 0.00 | 0.00 | 38 | 1013.4 |
| 20260504173552 | 21 | 54 | 1.6 | 11.3 | 0.00 | 0.00 | 0.00 | 38 | 1013.3 |
| 20260504173050 | 21 | 131 | 1.6 | 8.0 | 0.00 | 0.00 | 0.00 | 39 | 1013.5 |
| 20260504172549 | 21 | 179 | 0.0 | 4.8 | 0.00 | 0.00 | 0.00 | 37 | 1013.5 |
| 20260504172049 | 21 | 233 | 0.0 | 3.2 | 0.00 | 0.00 | 0.00 | 38 | 1013.6 |
| 20260504171549 | 21 | 180 | 0.0 | 6.4 | 0.00 | 0.00 | 0.00 | 39 | 1013.7 |
| 20260504171048 | 21 | 193 | 0.0 | 8.0 | 0.00 | 0.00 | 0.00 | 39 | 1013.5 |
| 20260504170547 | 21 | 208 | 1.6 | 8.0 | 0.00 | 0.00 | 0.00 | 38 | 1013.6 |
| 20260504151024 | 19 | 250 | 0.0 | 8.0 | 0.00 | 0.00 | 0.00 | 44 | 1015.0 |
| 20260504150523 | 19 | 220 | 0.0 | 6.4 | 0.00 | 0.00 | 0.00 | 44 | 1015.1 |
| 20260504141017 | 16 | 60 | 0.0 | 6.4 | 0.00 | 0.00 | 0.00 | 56 | 1015.3 |
| 20260504140508 | 16 | 236 | 0.0 | 4.8 | 0.00 | 0.00 | 0.00 | 58 | 1015.2 |
| 20260504130553 | 13 | 231 | 0.0 | 4.8 | 0.00 | 0.00 | 0.00 | 65 | 1015.6 |
| 20260504110523 | 6 | 204 | 0.0 | 0.0 | 0.00 | 0.00 | 0.00 | 78 | 1016.2 |
| 20260504100520 | 4 | 206 | 0.0 | 0.0 | 0.00 | 0.00 | 0.00 | 76 | 1016.1 |
| 20260504081517 | 5 | 194 | 0.0 | 0.0 | 0.00 | 0.00 | 0.00 | 72 | 1016.0 |
| 20260504081009 | 5 | 194 | 0.0 | 0.0 | 0.00 | 0.00 | 0.00 | 72 | 1016.0 |
| 20260504080514 | 5 | 194 | 0.0 | 0.0 | 0.00 | 0.00 | 0.00 | 71 | 1016.0 |
| 20260504050552 | 6 | 195 | 0.0 | 0.0 | 0.00 | 0.00 | 0.00 | 66 | 1015.9 |
| 20260504045555 | 6 | 195 | 0.0 | 0.0 | 0.00 | 0.00 | 0.00 | 66 | 1015.9 |
| 20260504045050 | 7 | 195 | 0.0 | 0.0 | 0.00 | 0.00 | 0.00 | 66 | 1015.9 |
| 20260504044552 | 7 | 195 | 0.0 | 0.0 | 0.00 | 0.00 | 0.00 | 66 | 1015.9 |
| 20260504044049 | 6 | 195 | 0.0 | 0.0 | 0.00 | 0.00 | 0.00 | 66 | 1015.8 |
| 20260504043549 | 6 | 195 | 0.0 | 0.0 | 0.00 | 0.00 | 0.00 | 66 | 1015.9 |
| 20260504043109 | 6 | 195 | 0.0 | 0.0 | 0.00 | 0.00 | 0.00 | 66 | 1015.8 |
| 20260504042547 | 6 | 195 | 0.0 | 0.0 | 0.00 | 0.00 | 0.00 | 66 | 1015.6 |
| 20260504042050 | 7 | 196 | 0.0 | 0.0 | 0.00 | 0.00 | 0.00 | 65 | 1015.5 |
| 20260504041545 | 7 | 195 | 0.0 | 0.0 | 0.00 | 0.00 | 0.00 | 65 | 1015.5 |
| 20260504041045 | 7 | 195 | 0.0 | 0.0 | 0.00 | 0.00 | 0.00 | 64 | 1015.5 |
| 20260504040546 | 7 | 195 | 0.0 | 0.0 | 0.00 | 0.00 | 0.00 | 64 | 1015.4 |
| 20260504040043 | 7 | 195 | 0.0 | 0.0 | 0.00 | 0.00 | 0.00 | 63 | 1015.4 |
| 20260504035544 | 7 | 195 | 0.0 | 0.0 | 0.00 | 0.00 | 0.00 | 63 | 1015.3 |
| 20260504035043 | 7 | 196 | 0.0 | 0.0 | 0.00 | 0.00 | 0.00 | 63 | 1015.2 |
| 20260504034547 | 7 | 195 | 0.0 | 0.0 | 0.00 | 0.00 | 0.00 | 61 | 1015.3 |
| 20260504034042 | 8 | 195 | 0.0 | 0.0 | 0.00 | 0.00 | 0.00 | 61 | 1015.3 |
| 20260504033542 | 8 | 195 | 0.0 | 0.0 | 0.00 | 0.00 | 0.00 | 60 | 1015.2 |
| 20260504033042 | 8 | 195 | 0.0 | 0.0 | 0.00 | 0.00 | 0.00 | 60 | 1015.3 |
| 20260504032542 | 8 | 195 | 0.0 | 0.0 | 0.00 | 0.00 | 0.00 | 60 | 1015.2 |
| 20260504032042 | 8 | 195 | 0.0 | 0.0 | 0.00 | 0.00 | 0.00 | 59 | 1015.2 |
| 20260504031549 | 8 | 195 | 0.0 | 0.0 | 0.00 | 0.00 | 0.00 | 58 | 1015.1 |
| 20260504031041 | 8 | 195 | 0.0 | 0.0 | 0.00 | 0.00 | 0.00 | 57 | 1015.3 |
| 20260504030541 | 9 | 195 | 0.0 | 0.0 | 0.00 | 0.00 | 0.00 | 56 | 1015.1 |
| 20260504030100 | 9 | 195 | 0.0 | 0.0 | 0.00 | 0.00 | 0.00 | 56 | 1015.1 |
| 20260504025541 | 10 | 195 | 0.0 | 0.0 | 0.00 | 0.00 | 0.00 | 54 | 1015.1 |
| 20260504025041 | 10 | 195 | 0.0 | 0.0 | 0.00 | 0.00 | 0.00 | 53 | 1015.1 |
| 20260504024541 | 10 | 195 | 0.0 | 0.0 | 0.00 | 0.00 | 0.00 | 53 | 1015.3 |
| 20260504024041 | 10 | 195 | 0.0 | 4.8 | 0.00 | 0.00 | 0.00 | 53 | 1015.1 |
| 20260504023540 | 10 | 196 | 0.0 | 4.8 | 0.00 | 0.00 | 0.00 | 53 | 1015.0 |
| 20260504023042 | 10 | 195 | 0.0 | 1.6 | 0.00 | 0.00 | 0.00 | 53 | 1015.2 |
| 20260504022542 | 10 | 195 | 0.0 | 1.6 | 0.00 | 0.00 | 0.00 | 54 | 1015.2 |
| 20260504022040 | 10 | 199 | 0.0 | 0.0 | 0.00 | 0.00 | 0.00 | 54 | 1015.2 |
| 20260504021545 | 10 | 199 | 0.0 | 0.0 | 0.00 | 0.00 | 0.00 | 54 | 1015.3 |
| 20260504021039 | 9 | 199 | 0.0 | 0.0 | 0.00 | 0.00 | 0.00 | 55 | 1015.2 |
| 20260504020542 | 10 | 199 | 0.0 | 0.0 | 0.00 | 0.00 | 0.00 | 54 | 1015.2 |
| 20260504020040 | 10 | 199 | 0.0 | 0.0 | 0.00 | 0.00 | 0.00 | 53 | 1015.1 |
| 20260504015540 | 10 | 199 | 0.0 | 0.0 | 0.00 | 0.00 | 0.00 | 53 | 1015.1 |
| 20260504015040 | 10 | 199 | 0.0 | 0.0 | 0.00 | 0.00 | 0.00 | 52 | 1015.1 |
| 20260504014540 | 10 | 200 | 0.0 | 0.0 | 0.00 | 0.00 | 0.00 | 53 | 1015.2 |
| 20260504014039 | 10 | 200 | 0.0 | 0.0 | 0.00 | 0.00 | 0.00 | 52 | 1015.1 |
| 20260504013540 | 10 | 200 | 0.0 | 0.0 | 0.00 | 0.00 | 0.00 | 52 | 1015.0 |
| 20260504013041 | 10 | 200 | 0.0 | 0.0 | 0.00 | 0.00 | 0.00 | 52 | 1015.0 |
| 20260504012538 | 10 | 200 | 0.0 | 0.0 | 0.00 | 0.00 | 0.00 | 51 | 1014.8 |
| 20260504012038 | 10 | 200 | 0.0 | 0.0 | 0.00 | 0.00 | 0.00 | 52 | 1014.9 |
| 20260504011538 | 11 | 200 | 0.0 | 0.0 | 0.00 | 0.00 | 0.00 | 51 | 1014.8 |
| 20260504011042 | 11 | 200 | 0.0 | 0.0 | 0.00 | 0.00 | 0.00 | 51 | 1014.7 |
| 20260504010640 | 11 | 200 | 0.0 | 0.0 | 0.00 | 0.00 | 0.00 | 51 | 1014.6 |
| 20260504010045 | 11 | 200 | 0.0 | 0.0 | 0.00 | 0.00 | 0.00 | 51 | 1014.5 |
| 20260504005537 | 11 | 200 | 0.0 | 0.0 | 0.00 | 0.00 | 0.00 | 50 | 1014.5 |
| 20260504005038 | 11 | 200 | 0.0 | 0.0 | 0.00 | 0.00 | 0.00 | 49 | 1014.6 |
| 20260504004543 | 11 | 200 | 0.0 | 0.0 | 0.00 | 0.00 | 0.00 | 49 | 1014.4 |
| 20260504004038 | 11 | 200 | 0.0 | 0.0 | 0.00 | 0.00 | 0.00 | 49 | 1014.4 |
| 20260504003536 | 11 | 200 | 0.0 | 0.0 | 0.00 | 0.00 | 0.00 | 49 | 1014.3 |
| 20260504003036 | 11 | 200 | 0.0 | 0.0 | 0.00 | 0.00 | 0.00 | 49 | 1014.3 |
| 20260504002536 | 11 | 200 | 0.0 | 0.0 | 0.00 | 0.00 | 0.00 | 49 | 1014.3 |
| 20260504002036 | 11 | 200 | 0.0 | 0.0 | 0.00 | 0.00 | 0.00 | 48 | 1014.2 |
| 20260504001539 | 11 | 200 | 0.0 | 0.0 | 0.00 | 0.00 | 0.00 | 46 | 1014.0 |
| 20260504001036 | 12 | 200 | 0.0 | 0.0 | 0.00 | 0.00 | 0.00 | 46 | 1014.0 |
| 20260504000535 | 12 | 200 | 0.0 | 0.0 | 0.00 | 0.00 | 0.00 | 45 | 1013.9 |
| 20260504000037 | 12 | 194 | 0.0 | 0.0 | 0.00 | 0.00 | 0.00 | 44 | 1013.7 |
| 20260503235536 | 12 | 194 | 0.0 | 0.0 | 0.00 | 0.00 | 0.00 | 43 | 1013.7 |
| 20260503235036 | 13 | 194 | 0.0 | 0.0 | 0.00 | 0.00 | 0.00 | 42 | 1013.7 |
| 20260503234539 | 13 | 194 | 0.0 | 1.6 | 0.00 | 0.00 | 0.00 | 42 | 1013.7 |
| 20260503234038 | 13 | 192 | 0.0 | 6.4 | 0.00 | 0.00 | 0.00 | 40 | 1013.7 |
| 20260503233534 | 13 | 196 | 0.0 | 4.8 | 0.00 | 0.00 | 0.00 | 41 | 1013.7 |
| 20260503233035 | 13 | 190 | 0.0 | 4.8 | 0.00 | 0.00 | 0.00 | 39 | 1013.6 |
| 20260503232537 | 13 | 198 | 0.0 | 3.2 | 0.00 | 0.00 | 0.00 | 39 | 1013.6 |
| 20260503232035 | 14 | 176 | 0.0 | 4.8 | 0.00 | 0.00 | 0.00 | 40 | 1013.7 |
| 20260503231535 | 14 | 196 | 0.0 | 4.8 | 0.00 | 0.00 | 0.00 | 38 | 1013.6 |
| 20260503231038 | 14 | 201 | 0.0 | 3.2 | 0.00 | 0.00 | 0.00 | 38 | 1013.6 |
| 20260503230536 | 15 | 198 | 0.0 | 9.7 | 0.00 | 0.00 | 0.00 | 38 | 1013.5 |
| 20260503230045 | 15 | 190 | 0.0 | 9.7 | 0.00 | 0.00 | 0.00 | 37 | 1013.3 |
| 20260503225534 | 15 | 191 | 0.0 | 3.2 | 0.00 | 0.00 | 0.00 | 37 | 1013.4 |
| 20260503225034 | 15 | 197 | 0.0 | 8.0 | 0.00 | 0.00 | 0.00 | 35 | 1013.5 |
| 20260503224533 | 16 | 162 | 0.0 | 9.7 | 0.00 | 0.00 | 0.00 | 35 | 1013.5 |
| 20260503224036 | 16 | 193 | 1.6 | 9.7 | 0.00 | 0.00 | 0.00 | 33 | 1013.4 |
| 20260503223533 | 17 | 187 | 0.0 | 4.8 | 0.00 | 0.00 | 0.00 | 33 | 1013.4 |
| 20260503223033 | 16 | 176 | 0.0 | 8.0 | 0.00 | 0.00 | 0.00 | 33 | 1013.4 |
| 20260503222532 | 17 | 178 | 0.0 | 8.0 | 0.00 | 0.00 | 0.00 | 32 | 1013.4 |
| 20260503222032 | 17 | 153 | 0.0 | 8.0 | 0.00 | 0.00 | 0.00 | 32 | 1013.4 |
| 20260503221535 | 17 | 203 | 0.0 | 6.4 | 0.00 | 0.00 | 0.00 | 34 | 1013.4 |
| 20260503221033 | 16 | 182 | 0.0 | 9.7 | 0.00 | 0.00 | 0.00 | 33 | 1013.2 |
| 20260503220532 | 16 | 190 | 0.0 | 9.7 | 0.00 | 0.00 | 0.00 | 33 | 1013.2 |
| 20260503220037 | 16 | 163 | 0.0 | 6.4 | 0.00 | 0.00 | 0.00 | 33 | 1013.2 |
| 20260503215532 | 16 | 221 | 1.6 | 8.0 | 0.00 | 0.00 | 0.00 | 32 | 1013.3 |
| 20260503215031 | 17 | 179 | 0.0 | 8.0 | 0.00 | 0.00 | 0.00 | 32 | 1013.2 |
| 20260503214545 | 16 | 196 | 0.0 | 4.8 | 0.00 | 0.00 | 0.00 | 32 | 1013.1 |
| 20260503214029 | 16 | 182 | 0.0 | 8.0 | 0.00 | 0.00 | 0.00 | 33 | 1013.2 |
| 20260503213529 | 16 | 200 | 3.2 | 8.0 | 0.00 | 0.00 | 0.00 | 32 | 1013.2 |
| 20260503213033 | 16 | 163 | 0.0 | 8.0 | 0.00 | 0.00 | 0.00 | 32 | 1013.2 |
| 20260503212528 | 16 | 177 | 1.6 | 8.0 | 0.00 | 0.00 | 0.00 | 31 | 1013.3 |
| 20260503212028 | 16 | 190 | 0.0 | 9.7 | 0.00 | 0.00 | 0.00 | 32 | 1013.1 |
| 20260503211528 | 16 | 215 | 1.6 | 9.7 | 0.00 | 0.00 | 0.00 | 33 | 1013.2 |
| 20260503211028 | 16 | 173 | 0.0 | 8.0 | 0.00 | 0.00 | 0.00 | 34 | 1013.2 |
| 20260503210528 | 16 | 159 | 1.6 | 9.7 | 0.00 | 0.00 | 0.00 | 32 | 1013.2 |
| 20260503210027 | 16 | 141 | 1.6 | 11.3 | 0.00 | 0.00 | 0.00 | 32 | 1013.2 |
| 20260503205527 | 16 | 198 | 1.6 | 11.3 | 0.00 | 0.00 | 0.00 | 33 | 1013.3 |
| 20260503205028 | 16 | 133 | 0.0 | 9.7 | 0.00 | 0.00 | 0.00 | 34 | 1013.5 |
| 20260503204529 | 16 | 191 | 0.0 | 8.0 | 0.00 | 0.00 | 0.00 | 34 | 1013.5 |
| 20260503204024 | 15 | 168 | 0.0 | 4.8 | 0.00 | 0.00 | 0.00 | 36 | 1013.3 |
| 20260503203526 | 15 | 198 | 0.0 | 4.8 | 0.00 | 0.00 | 0.00 | 35 | 1013.5 |
| 20260503203025 | 15 | 182 | 0.0 | 6.4 | 0.00 | 0.00 | 0.00 | 35 | 1013.6 |
| 20260503202523 | 15 | 183 | 1.6 | 8.0 | 0.00 | 0.00 | 0.00 | 35 | 1013.5 |
| 20260503202020 | 15 | 155 | 1.6 | 12.9 | 0.00 | 0.00 | 0.00 | 36 | 1013.5 |
| 20260503201520 | 14 | 181 | 1.6 | 12.9 | 0.00 | 0.00 | 0.00 | 36 | 1013.5 |
| 20260503201020 | 14 | 184 | 1.6 | 12.9 | 0.00 | 0.00 | 0.00 | 36 | 1013.6 |
| 20260503200519 | 14 | 169 | 1.6 | 12.9 | 0.00 | 0.00 | 0.00 | 35 | 1013.7 |
| 20260503200019 | 14 | 96 | 3.2 | 9.7 | 0.00 | 0.00 | 0.00 | 36 | 1013.6 |
| 20260503195517 | 14 | 174 | 1.6 | 6.4 | 0.00 | 0.00 | 0.00 | 36 | 1013.8 |